• In Netherlands
  • List of Countries
  • For 7 days
  • Water Temperature
  • Satellite Maps
  • Weather Map
  • Weather Widgets
  • user-avatar
    Login

    Hourly Weather Wiktoria

    Today, 21 August, Monday

    Time Temperature Precipitation Wind Pressure Humidity
    00:00 +5°C° 0 mm 2 mps 752 mmHg 78%
    01:00 +5°C° 0 mm 2 mps 752 mmHg 78%
    02:00 +5°C° 0.1 mm 2 mps 752 mmHg 79%
    03:00 +5°C° 0.1 mm 2 mps 751 mmHg 80%
    04:00 +4°C° 0 mm 4 mps 751 mmHg 80%
    05:00 +4°C° 0.2 mm 3 mps 751 mmHg 84%
    06:00 +3°C° 0.2 mm 3 mps 751 mmHg 87%
    07:00 +3°C° 0.2 mm 3 mps 750 mmHg 91%
    08:00 +4°C° 0.1 mm 3 mps 750 mmHg 90%
    09:00 +5°C° 0.1 mm 4 mps 750 mmHg 89%
    10:00 +6°C° 0.1 mm 4 mps 750 mmHg 87%
    11:00 +7°C° 0 mm 4 mps 750 mmHg 83%
    12:00 +8°C° 0 mm 4 mps 749 mmHg 79%
    13:00 +11°C° 0 mm 4 mps 749 mmHg 75%
    14:00 +11°C° 0.1 mm 4 mps 749 mmHg 77%
    15:00 +10°C° 0.1 mm 4 mps 749 mmHg 78%
    16:00 +10°C° 0.1 mm 4 mps 749 mmHg 80%
    17:00 +9°C° 0.1 mm 3 mps 749 mmHg 85%
    18:00 +8°C° 0.1 mm 3 mps 749 mmHg 90%
    19:00 +7°C° 0.1 mm 3 mps 749 mmHg 95%
    20:00 +7°C° 0 mm 3 mps 750 mmHg 95%
    21:00 +6°C° 0 mm 2 mps 750 mmHg 96%
    22:00 +6°C° 0 mm 2 mps 751 mmHg 96%
    23:00 +5°C° 0 mm 2 mps 751 mmHg 96%

    Tomorrow, 22 August, Tuesday

    Time Temperature Precipitation Wind Pressure Humidity
    00:00 +5°C° 0 mm 2 mps 751 mmHg 96%
    01:00 +4°C° 0 mm 2 mps 751 mmHg 96%
    02:00 +4°C° 0 mm 2 mps 751 mmHg 95%
    03:00 +3°C° 0 mm 2 mps 751 mmHg 95%
    04:00 +4°C° 0 mm 1 mps 751 mmHg 95%
    05:00 +4°C° 0 mm 1 mps 751 mmHg 95%
    06:00 +4°C° 0 mm 1 mps 752 mmHg 94%
    07:00 +3°C° 0 mm 1 mps 752 mmHg 94%
    08:00 +6°C° 0 mm 1 mps 752 mmHg 89%
    09:00 +8°C° 0 mm 1 mps 753 mmHg 84%
    10:00 +10°C° 0 mm 0 mps 753 mmHg 78%
    11:00 +12°C° 0 mm 1 mps 752 mmHg 74%
    12:00 +13°C° 0 mm 1 mps 752 mmHg 70%
    13:00 +14°C° 0 mm 2 mps 752 mmHg 66%
    14:00 +14°C° 0 mm 2 mps 752 mmHg 68%
    15:00 +14°C° 0 mm 2 mps 752 mmHg 70%
    16:00 +15°C° 0 mm 2 mps 752 mmHg 71%
    17:00 +13°C° 0 mm 2 mps 752 mmHg 77%
    18:00 +11°C° 0 mm 1 mps 752 mmHg 82%
    19:00 +9°C° 0 mm 1 mps 753 mmHg 88%
    20:00 +8°C° 0 mm 1 mps 753 mmHg 88%
    21:00 +8°C° 0 mm 1 mps 754 mmHg 88%
    22:00 +6°C° 0 mm 0 mps 754 mmHg 88%
    23:00 +6°C° 0 mm 0 mps 754 mmHg 89%

    Day after tomorrow, 23 August, Wednesday

    Time Temperature Precipitation Wind Pressure Humidity
    00:00 +5°C° 0 mm 0 mps 754 mmHg 90%
    01:00 +6°C° 0 mm 1 mps 754 mmHg 91%
    02:00 +5°C° 0 mm 0 mps 754 mmHg 92%
    03:00 +4°C° 0 mm 0 mps 753 mmHg 92%
    04:00 +4°C° 0 mm 0 mps 753 mmHg 93%
    05:00 +4°C° 0 mm 0 mps 753 mmHg 93%
    06:00 +5°C° 0 mm 1 mps 753 mmHg 94%
    07:00 +5°C° 0 mm 1 mps 754 mmHg 94%
    08:00 +7°C° 0 mm 1 mps 754 mmHg 90%
    09:00 +8°C° 0 mm 2 mps 754 mmHg 86%
    10:00 +10°C° 0 mm 2 mps 754 mmHg 82%
    11:00 +11°C° 0 mm 3 mps 753 mmHg 80%
    12:00 +12°C° 0 mm 3 mps 752 mmHg 78%
    13:00 +14°C° 0 mm 4 mps 752 mmHg 75%
    14:00 +13°C° 0.4 mm 3 mps 752 mmHg 79%
    15:00 +13°C° 0.4 mm 3 mps 751 mmHg 82%
    16:00 +13°C° 0.4 mm 3 mps 751 mmHg 85%
    17:00 +12°C° 0.4 mm 3 mps 752 mmHg 88%
    18:00 +11°C° 0.4 mm 3 mps 752 mmHg 91%
    19:00 +10°C° 0.4 mm 2 mps 753 mmHg 94%
    20:00 +8°C° 0.2 mm 3 mps 753 mmHg 94%
    21:00 +7°C° 0.2 mm 3 mps 753 mmHg 93%
    22:00 +5°C° 0.2 mm 4 mps 754 mmHg 93%
    23:00 +4°C° 0 mm 3 mps 754 mmHg 94%

    24 August, Thursday

    Time Temperature Precipitation Wind Pressure Humidity
    00:00 +3°C° 0 mm 3 mps 754 mmHg 94%
    01:00 +3°C° 0 mm 3 mps 754 mmHg 94%
    02:00 +2°C° 0 mm 3 mps 754 mmHg 94%
    03:00 +2°C° 0 mm 3 mps 754 mmHg 94%
    04:00 +1°C° 0 mm 3 mps 754 mmHg 94%
    05:00 +1°C° 0 mm 3 mps 754 mmHg 93%
    06:00 +1°C° 0 mm 3 mps 755 mmHg 93%
    07:00 +2°C° 0 mm 2 mps 755 mmHg 93%
    08:00 +3°C° 0 mm 3 mps 755 mmHg 88%
    09:00 +5°C° 0 mm 4 mps 756 mmHg 82%
    10:00 +8°C° 0 mm 5 mps 756 mmHg 77%
    11:00 +9°C° 0 mm 5 mps 755 mmHg 72%
    12:00 +10°C° 0 mm 5 mps 755 mmHg 66%
    13:00 +12°C° 0 mm 5 mps 755 mmHg 61%
    14:00 +12°C° 0 mm 5 mps 754 mmHg 62%
    15:00 +12°C° 0 mm 4 mps 754 mmHg 63%
    16:00 +12°C° 0 mm 4 mps 754 mmHg 64%
    17:00 +10°C° 0 mm 3 mps 754 mmHg 69%
    18:00 +8°C° 0 mm 3 mps 755 mmHg 75%
    19:00 +6°C° 0 mm 2 mps 755 mmHg 80%
    20:00 +5°C° 0 mm 2 mps 755 mmHg 82%
    21:00 +5°C° 0 mm 2 mps 756 mmHg 84%
    22:00 +4°C° 0 mm 2 mps 756 mmHg 85%
    23:00 +4°C° 0 mm 2 mps 756 mmHg 87%

    25 August, Friday

    Time Temperature Precipitation Wind Pressure Humidity
    00:00 +3°C° 0 mm 2 mps 756 mmHg 90%
    01:00 +3°C° 0 mm 2 mps 756 mmHg 92%
    02:00 +2°C° 0 mm 2 mps 756 mmHg 92%
    03:00 +2°C° 0 mm 2 mps 756 mmHg 93%
    04:00 +2°C° 0 mm 2 mps 755 mmHg 94%
    05:00 +3°C° 0 mm 1 mps 756 mmHg 94%
    06:00 +3°C° 0 mm 1 mps 756 mmHg 94%
    07:00 +3°C° 0 mm 1 mps 756 mmHg 95%
    08:00 +6°C° 0 mm 1 mps 756 mmHg 89%
    09:00 +7°C° 0 mm 2 mps 756 mmHg 83%
    10:00 +10°C° 0 mm 2 mps 756 mmHg 77%
    11:00 +12°C° 0 mm 2 mps 756 mmHg 73%
    12:00 +12°C° 0 mm 3 mps 755 mmHg 69%
    13:00 +13°C° 0 mm 3 mps 754 mmHg 64%
    14:00 +13°C° 0 mm 3 mps 754 mmHg 65%
    15:00 +13°C° 0 mm 3 mps 754 mmHg 66%
    16:00 +13°C° 0 mm 3 mps 753 mmHg 67%
    17:00 +11°C° 0 mm 3 mps 754 mmHg 72%
    18:00 +9°C° 0 mm 2 mps 754 mmHg 76%
    19:00 +8°C° 0 mm 2 mps 754 mmHg 81%
    20:00 +7°C° 0 mm 2 mps 755 mmHg 81%
    21:00 +7°C° 0 mm 2 mps 755 mmHg 81%
    22:00 +7°C° 0 mm 2 mps 755 mmHg 82%
    23:00 +6°C° 0 mm 2 mps 755 mmHg 84%

    26 August, Saturday

    Time Temperature Precipitation Wind Pressure Humidity
    00:00 +6°C° 0 mm 2 mps 755 mmHg 86%
    01:00 +5°C° 0 mm 2 mps 755 mmHg 88%
    02:00 +5°C° 0 mm 2 mps 755 mmHg 89%
    03:00 +4°C° 0 mm 2 mps 754 mmHg 91%
    04:00 +3°C° 0 mm 2 mps 754 mmHg 93%
    05:00 +4°C° 0 mm 1 mps 755 mmHg 94%
    06:00 +4°C° 0 mm 1 mps 755 mmHg 95%
    07:00 +4°C° 0 mm 1 mps 755 mmHg 95%
    08:00 +5°C° 0 mm 2 mps 755 mmHg 93%
    09:00 +6°C° 0 mm 2 mps 755 mmHg 90%
    10:00 +8°C° 0 mm 2 mps 756 mmHg 88%
    11:00 +9°C° 0.1 mm 3 mps 756 mmHg 85%
    12:00 +10°C° 0.1 mm 3 mps 755 mmHg 81%
    13:00 +11°C° 0.1 mm 4 mps 755 mmHg 78%
    14:00 +11°C° 0.1 mm 4 mps 755 mmHg 75%
    15:00 +11°C° 0.1 mm 4 mps 755 mmHg 72%
    16:00 +11°C° 0.1 mm 4 mps 755 mmHg 69%
    17:00 +8°C° 0 mm 4 mps 756 mmHg 72%
    18:00 +6°C° 0 mm 4 mps 757 mmHg 74%
    19:00 +5°C° 0 mm 4 mps 757 mmHg 76%
    20:00 +4°C° 0 mm 3 mps 757 mmHg 79%
    21:00 +3°C° 0 mm 3 mps 758 mmHg 81%
    22:00 +2°C° 0 mm 3 mps 758 mmHg 83%
    23:00 +2°C° 0 mm 3 mps 758 mmHg 85%
    Show more